Regional Weather Roundup
Issued by NWS Kansas City/Pleasant Hill, MO

Home | Current Version | Previous Version | Graphics & Text | Print | Product List | Glossary Off
Versions: 1 2 3 4 5 6 7 8 9 10 11 12 13 14 15 16 17 18 19 20 21 22 23 24 25 26 27 28 29 30 31 32 33 34 35 36 37 38 39 40 41 42 43 44 45 46 47 48 49 50

000
ASUS43 KEAX 200204
RWREAX

WEATHER ROUNDUP FOR EASTERN KANSAS AND NORTHWEST MISSOURI
NATIONAL WEATHER SERVICE KANSAS CITY/PLEASANT HILL MO
800 PM CST FRI DEC 19 2014

KSZ040-057-103>105-MOZ028-029-037-043-200300-
...KANSAS CITY METROPOLITAN AREA...

CITY           SKY/WX    TMP DP  RH WIND       PRES   REMARKS
K.C. INTL      CLOUDY    32  30  92 S3        30.20S
K.C. DOWNTOWN  CLOUDY    35  31  85 CALM      30.21S
LEES SUMMIT    CLOUDY    34  32  92 CALM      30.21S FOG
OLATHE - IXD   CLOUDY    32  32 100 SW3       30.21R FOG
OLATHE - OJC   CLOUDY    33  33 100 CALM      30.20R FOG
LAWRENCE       CLOUDY    33  30  88 SW3       30.22S

$$

MOZ001>008-011>017-020>025-030>033-038>040-044>046-053-054-200300-
...NORTHERN AND CENTRAL MISSOURI...

CITY           SKY/WX    TMP DP  RH WIND       PRES   REMARKS
ST. JOSEPH     CLOUDY    32  29  88 SW6       30.22R WCI  26
MOSBY          CLOUDY    32  32 100 CALM      30.22S
WARRENSBURG    CLOUDY    34  34 100 CALM      30.21F FOG
WHITEMAN AFB   CLOUDY    36  35  95 SE3       30.21S
CLINTON        CLOUDY    37  37 100 E3        30.22S
SEDALIA        CLOUDY    36  34  92 SE6       30.22S FOG     WCI  31
WARSAW         NOT AVBL
MARSHALL       CLOUDY    37  36  93 CALM      30.23S FOG
CHILLICOTHE      N/A     34  32  92 CALM      30.23S
MOBERLY        CLOUDY    34  28  80 E5        30.23  HAZE    WCI  30
KIRKSVILLE     CLOUDY    32  30  92 SE7       30.23S FOG     WCI  26

$$

MOZ041-047>049-056>058-063>065-088>090-097-200300-
...EASTERN AND SOUTHERN MISSOURI...

CITY           SKY/WX    TMP DP  RH WIND       PRES   REMARKS
ST. LOUIS INTL CLOUDY    36  28  73 E7        30.26F WCI  30
SPIRIT OF STL  CLOUDY    36  31  82 CALM      30.25F
COLUMBIA       CLOUDY    35  32  88 SE7       30.22F WCI  29
JEFFERSON CITY CLOUDY    37  32  82 E5        30.24S WCI  33
MEXICO         CLOUDY   N/A N/A N/A SE5       30.24F
HANNIBAL       CLOUDY    34  27  75 SE3       30.25S
ROLLA          CLOUDY    34  31  88 SE5       30.20S WCI  30
LEBANON        FOG       36  34  93 SE6       30.20S VSB 3/4 WCI  31
OSAGE BEACH    CLOUDY    37  34  87 CALM      30.22S
SPRINGFIELD    LGT RAIN  38  36  92 S6        30.18S WCI  33
BRANSON        FOG       37  36  93 CALM      30.20S VSB 1/4
NEVADA         FOG       37  36  93 CALM      30.21S VSB 1/2
JOPLIN         FOG       39  39 100 CALM      30.20F VSB 1/4
WEST PLAINS      N/A     35  33  92 SE5       30.21F WCI  31

$$

IAZ060-094-KSZ022-034>040-054-083-096-NEZ052-066-093-200300-
...KANSAS...SOUTHEAST NEBRASKA AND IOWA...

CITY           SKY/WX    TMP DP  RH WIND       PRES   REMARKS
TOPEKA         CLOUDY    34  28  79 SW5       30.22R WCI  30
MANHATTAN      CLOUDY    34  31  88 SE3       30.18S
EMPORIA        CLOUDY    32  29  88 SW3       30.19F
CHANUTE        FOG       35  35 100 NW5       30.21S VSB 3/4 WCI  31
WICHITA        CLOUDY    37  33  85 S7        30.17F WCI  32
OMAHA          DRIZZLE   31  29  92 S9        30.17S FOG     WCI  23
LINCOLN        CLOUDY    34  30  85 S8        30.15S WCI  27
FALLS CITY     CLOUDY    30  27  88 SE6       30.19S WCI  24
LAMONI         CLOUDY    31  30  96 S5        30.19S FOG     WCI  26
DES MOINES     CLOUDY    32  28  85 SE9       30.20S WCI  24

$$



USA.gov is the U.S. government's official web portal to all federal, state and local government web resources and services.